• In Netherlands
  • List of Countries
  • For 7 days
  • Water Temperature
  • Satellite Maps
  • Weather Map
  • Weather Widgets
  • user-avatar
    Login

    Hourly Weather Sarafovo

    Today, 29 May, Monday

    Time Temperature Precipitation Wind Pressure Humidity
    00:00 +13°C° 0 mm 3 mps 763 mmHg 92%
    01:00 +13°C° 0 mm 3 mps 762 mmHg 91%
    02:00 +12°C° 0 mm 3 mps 762 mmHg 90%
    03:00 +12°C° 0 mm 4 mps 762 mmHg 90%
    04:00 +12°C° 0 mm 4 mps 762 mmHg 89%
    05:00 +12°C° 0 mm 4 mps 761 mmHg 89%
    06:00 +14°C° 0 mm 4 mps 761 mmHg 83%
    07:00 +17°C° 0 mm 4 mps 761 mmHg 78%
    08:00 +19°C° 0 mm 5 mps 761 mmHg 73%
    09:00 +20°C° 0 mm 5 mps 761 mmHg 66%
    10:00 +22°C° 0 mm 5 mps 761 mmHg 60%
    11:00 +23°C° 0 mm 5 mps 761 mmHg 53%
    12:00 +23°C° 0 mm 5 mps 760 mmHg 53%
    13:00 +23°C° 0 mm 5 mps 760 mmHg 53%
    14:00 +25°C° 0 mm 5 mps 760 mmHg 52%
    15:00 +23°C° 0 mm 5 mps 759 mmHg 55%
    16:00 +23°C° 0 mm 5 mps 759 mmHg 58%
    17:00 +22°C° 0 mm 5 mps 759 mmHg 61%
    18:00 +20°C° 0 mm 4 mps 759 mmHg 70%
    19:00 +17°C° 0 mm 3 mps 759 mmHg 78%
    20:00 +15°C° 0 mm 2 mps 759 mmHg 87%
    21:00 +14°C° 0 mm 2 mps 759 mmHg 88%
    22:00 +13°C° 0 mm 2 mps 759 mmHg 88%
    23:00 +12°C° 0 mm 1 mps 759 mmHg 88%

    Tomorrow, 30 May, Tuesday

    Time Temperature Precipitation Wind Pressure Humidity
    00:00 +12°C° 0 mm 1 mps 759 mmHg 87%
    01:00 +12°C° 0 mm 2 mps 759 mmHg 86%
    02:00 +12°C° 0 mm 2 mps 759 mmHg 85%
    03:00 +12°C° 0 mm 2 mps 759 mmHg 85%
    04:00 +12°C° 0 mm 2 mps 758 mmHg 84%
    05:00 +12°C° 0 mm 1 mps 758 mmHg 84%
    06:00 +15°C° 0 mm 1 mps 759 mmHg 76%
    07:00 +19°C° 0 mm 1 mps 759 mmHg 68%
    08:00 +21°C° 0 mm 1 mps 759 mmHg 60%
    09:00 +23°C° 0 mm 1 mps 759 mmHg 57%
    10:00 +24°C° 0 mm 1 mps 759 mmHg 53%
    11:00 +25°C° 0 mm 1 mps 759 mmHg 50%
    12:00 +25°C° 0 mm 1 mps 759 mmHg 49%
    13:00 +26°C° 0 mm 1 mps 759 mmHg 48%
    14:00 +26°C° 0 mm 2 mps 759 mmHg 47%
    15:00 +26°C° 0 mm 2 mps 758 mmHg 49%
    16:00 +26°C° 0 mm 2 mps 758 mmHg 51%
    17:00 +25°C° 0 mm 2 mps 758 mmHg 54%
    18:00 +23°C° 0 mm 2 mps 758 mmHg 62%
    19:00 +19°C° 0 mm 2 mps 758 mmHg 71%
    20:00 +17°C° 0 mm 2 mps 758 mmHg 79%
    21:00 +16°C° 0 mm 2 mps 759 mmHg 80%
    22:00 +16°C° 0 mm 2 mps 759 mmHg 81%
    23:00 +15°C° 0 mm 2 mps 759 mmHg 82%

    Day after tomorrow, 31 May, Wednesday

    Time Temperature Precipitation Wind Pressure Humidity
    00:00 +15°C° 0 mm 2 mps 759 mmHg 82%
    01:00 +15°C° 0 mm 2 mps 759 mmHg 82%
    02:00 +16°C° 0 mm 2 mps 759 mmHg 82%
    03:00 +16°C° 0 mm 2 mps 759 mmHg 82%
    04:00 +15°C° 0 mm 2 mps 759 mmHg 82%
    05:00 +15°C° 0 mm 2 mps 758 mmHg 82%
    06:00 +18°C° 0 mm 2 mps 759 mmHg 77%
    07:00 +20°C° 0 mm 2 mps 759 mmHg 71%
    08:00 +23°C° 0 mm 2 mps 759 mmHg 66%
    09:00 +24°C° 0 mm 2 mps 759 mmHg 61%
    10:00 +26°C° 0 mm 2 mps 759 mmHg 57%
    11:00 +27°C° 0 mm 2 mps 759 mmHg 53%
    12:00 +28°C° 0 mm 2 mps 759 mmHg 50%
    13:00 +28°C° 0 mm 2 mps 758 mmHg 48%
    14:00 +29°C° 0 mm 2 mps 758 mmHg 46%
    15:00 +29°C° 0.1 mm 2 mps 758 mmHg 48%
    16:00 +29°C° 0.1 mm 2 mps 758 mmHg 49%
    17:00 +29°C° 0.1 mm 2 mps 757 mmHg 51%
    18:00 +26°C° 0.1 mm 2 mps 757 mmHg 60%
    19:00 +23°C° 0.1 mm 2 mps 757 mmHg 68%
    20:00 +20°C° 0.1 mm 2 mps 757 mmHg 77%
    21:00 +19°C° 0.1 mm 2 mps 757 mmHg 76%
    22:00 +19°C° 0.1 mm 2 mps 757 mmHg 75%
    23:00 +19°C° 0.1 mm 3 mps 758 mmHg 74%

    1 June, Thursday

    Time Temperature Precipitation Wind Pressure Humidity
    00:00 +19°C° 0 mm 3 mps 757 mmHg 75%
    01:00 +18°C° 0 mm 3 mps 757 mmHg 75%
    02:00 +18°C° 0 mm 3 mps 757 mmHg 76%
    03:00 +18°C° 0 mm 3 mps 757 mmHg 75%
    04:00 +18°C° 0 mm 3 mps 757 mmHg 75%
    05:00 +18°C° 0 mm 3 mps 757 mmHg 75%
    06:00 +20°C° 0 mm 3 mps 757 mmHg 71%
    07:00 +22°C° 0 mm 3 mps 757 mmHg 68%
    08:00 +25°C° 0 mm 3 mps 757 mmHg 64%
    09:00 +27°C° 0 mm 3 mps 757 mmHg 61%
    10:00 +28°C° 0 mm 3 mps 757 mmHg 58%
    11:00 +30°C° 0 mm 3 mps 757 mmHg 55%
    12:00 +30°C° 0.2 mm 3 mps 757 mmHg 54%
    13:00 +30°C° 0.2 mm 2 mps 757 mmHg 52%
    14:00 +31°C° 0.2 mm 2 mps 757 mmHg 51%
    15:00 +31°C° 0.4 mm 2 mps 756 mmHg 53%
    16:00 +30°C° 0.4 mm 2 mps 756 mmHg 56%
    17:00 +30°C° 0.4 mm 2 mps 756 mmHg 59%
    18:00 +28°C° 0.3 mm 2 mps 756 mmHg 66%
    19:00 +25°C° 0.3 mm 1 mps 757 mmHg 74%
    20:00 +23°C° 0.3 mm 1 mps 757 mmHg 81%
    21:00 +22°C° 0 mm 1 mps 757 mmHg 82%
    22:00 +22°C° 0 mm 1 mps 757 mmHg 83%
    23:00 +22°C° 0 mm 1 mps 757 mmHg 84%

    2 June, Friday

    Time Temperature Precipitation Wind Pressure Humidity
    00:00 +21°C° 0.1 mm 1 mps 757 mmHg 84%
    01:00 +21°C° 0.1 mm 1 mps 757 mmHg 85%
    02:00 +21°C° 0.1 mm 1 mps 757 mmHg 86%
    03:00 +20°C° 0.2 mm 1 mps 757 mmHg 86%
    04:00 +20°C° 0.2 mm 1 mps 757 mmHg 87%
    05:00 +20°C° 0.2 mm 1 mps 757 mmHg 88%
    06:00 +22°C° 0 mm 1 mps 758 mmHg 83%
    07:00 +24°C° 0 mm 1 mps 758 mmHg 78%
    08:00 +26°C° 0 mm 1 mps 758 mmHg 74%
    09:00 +27°C° 0.5 mm 2 mps 758 mmHg 71%
    10:00 +27°C° 0.5 mm 2 mps 758 mmHg 68%
    11:00 +28°C° 0.5 mm 3 mps 758 mmHg 66%
    12:00 +28°C° 0.6 mm 3 mps 758 mmHg 67%
    13:00 +27°C° 0.6 mm 4 mps 758 mmHg 68%
    14:00 +27°C° 0.6 mm 4 mps 758 mmHg 69%
    15:00 +26°C° 0.1 mm 3 mps 758 mmHg 71%
    16:00 +26°C° 0.1 mm 3 mps 758 mmHg 73%
    17:00 +25°C° 0.1 mm 3 mps 758 mmHg 74%
    18:00 +22°C° 0 mm 3 mps 759 mmHg 79%
    19:00 +21°C° 0 mm 2 mps 759 mmHg 83%
    20:00 +20°C° 0 mm 2 mps 759 mmHg 87%
    21:00 +19°C° 0 mm 2 mps 759 mmHg 88%
    22:00 +19°C° 0 mm 2 mps 759 mmHg 90%
    23:00 +18°C° 0 mm 2 mps 759 mmHg 91%

    3 June, Saturday

    Time Temperature Precipitation Wind Pressure Humidity
    00:00 +18°C° 0 mm 2 mps 759 mmHg 91%
    01:00 +18°C° 0 mm 2 mps 759 mmHg 92%
    02:00 +17°C° 0 mm 2 mps 759 mmHg 93%
    03:00 +17°C° 0 mm 2 mps 759 mmHg 93%
    04:00 +17°C° 0 mm 2 mps 759 mmHg 93%
    05:00 +17°C° 0 mm 2 mps 759 mmHg 94%
    06:00 +19°C° 0 mm 2 mps 759 mmHg 88%
    07:00 +20°C° 0 mm 3 mps 759 mmHg 83%
    08:00 +22°C° 0 mm 3 mps 760 mmHg 78%
    09:00 +24°C° 0 mm 3 mps 759 mmHg 73%
    10:00 +25°C° 0 mm 4 mps 759 mmHg 68%
    11:00 +26°C° 0 mm 4 mps 759 mmHg 64%
    12:00 +26°C° 0 mm 4 mps 759 mmHg 62%
    13:00 +26°C° 0 mm 4 mps 759 mmHg 61%
    14:00 +27°C° 0 mm 5 mps 758 mmHg 59%
    15:00 +26°C° 0 mm 5 mps 758 mmHg 60%
    16:00 +25°C° 0 mm 4 mps 758 mmHg 61%
    17:00 +25°C° 0 mm 4 mps 758 mmHg 62%
    18:00 +22°C° 0 mm 4 mps 759 mmHg 68%
    19:00 +20°C° 0 mm 3 mps 759 mmHg 75%
    20:00 +18°C° 0 mm 3 mps 759 mmHg 81%
    21:00 +17°C° 0 mm 2 mps 759 mmHg 83%
    22:00 +16°C° 0 mm 2 mps 759 mmHg 84%
    23:00 +15°C° 0 mm 2 mps 759 mmHg 86%
    Show more